Time,TemperatureF,DewpointF,PressureIn,WindDirection,WindDirectionDegrees,WindSpeedMPH,WindSpeedGustMPH,Humidity,HourlyPrecipIn,Conditions,Clouds,dailyrainin,SoftwareType,DateUTC
2013-01-31 00:03:00,45.7,44.4,30.22,SE,135,0.0,0.4,95,0.03,,,0.00,WUHU216HW,2013-01-31 08:03:00,
2013-01-31 00:08:00,45.7,44.4,30.22,SE,135,0.4,0.4,95,0.03,,,0.00,WUHU216HW,2013-01-31 08:08:00,
2013-01-31 00:13:00,45.7,44.4,30.22,South,180,0.4,0.4,95,0.02,,,0.00,WUHU216HW,2013-01-31 08:13:00,
2013-01-31 00:17:00,45.7,44.4,30.22,SSE,158,0.0,0.4,95,0.02,,,0.00,WUHU216HW,2013-01-31 08:17:00,
2013-01-31 00:22:00,45.7,44.4,30.22,SSW,203,0.0,0.4,95,0.02,,,0.00,WUHU216HW,2013-01-31 08:22:00,
2013-01-31 00:27:00,45.7,44.4,30.22,SSW,203,0.0,0.4,95,0.03,,,0.01,WUHU216HW,2013-01-31 08:27:00,
2013-01-31 00:32:00,45.5,44.2,30.23,SSW,203,0.0,0.0,95,0.02,,,0.01,WUHU216HW,2013-01-31 08:32:00,
2013-01-31 00:37:00,45.7,44.4,30.22,SSE,158,0.4,0.7,95,0.02,,,0.01,WUHU216HW,2013-01-31 08:37:00,
2013-01-31 00:42:00,45.7,44.4,30.23,SE,135,0.4,0.7,95,0.02,,,0.01,WUHU216HW,2013-01-31 08:42:00,
2013-01-31 00:47:00,45.7,44.4,30.23,East,90,0.9,0.9,95,0.02,,,0.01,WUHU216HW,2013-01-31 08:47:00,
2013-01-31 00:52:00,45.7,44.4,30.23,ESE,113,1.1,1.1,95,0.02,,,0.02,WUHU216HW,2013-01-31 08:52:00,
2013-01-31 00:57:00,45.7,44.4,30.23,East,90,0.4,1.1,95,0.02,,,0.02,WUHU216HW,2013-01-31 08:57:00,
2013-01-31 01:02:00,45.7,44.4,30.23,East,90,0.0,0.7,95,0.02,,,0.02,WUHU216HW,2013-01-31 09:02:00,
2013-01-31 01:07:00,45.7,44.4,30.23,East,90,0.0,0.4,95,0.02,,,0.02,WUHU216HW,2013-01-31 09:07:00,
2013-01-31 01:12:00,45.7,44.4,30.23,NE,45,0.0,0.7,95,0.03,,,0.02,WUHU216HW,2013-01-31 09:12:00,
2013-01-31 01:17:00,45.7,44.4,30.23,NE,45,0.0,0.7,95,0.03,,,0.02,WUHU216HW,2013-01-31 09:17:00,
2013-01-31 01:22:00,45.7,44.4,30.23,NE,45,0.0,0.0,95,0.03,,,0.02,WUHU216HW,2013-01-31 09:22:00,
2013-01-31 01:27:00,45.5,44.2,30.23,East,90,0.0,0.0,95,0.02,,,0.02,WUHU216HW,2013-01-31 09:27:00,
2013-01-31 01:32:00,45.7,44.4,30.23,ESE,113,0.2,1.1,95,0.02,,,0.02,WUHU216HW,2013-01-31 09:32:00,
2013-01-31 01:37:00,45.5,44.2,30.23,East,90,0.4,1.1,95,0.02,,,0.02,WUHU216HW,2013-01-31 09:37:00,
2013-01-31 01:42:00,45.7,44.4,30.23,SE,135,0.0,1.8,95,0.02,,,0.02,WUHU216HW,2013-01-31 09:42:00,
2013-01-31 01:47:00,45.7,44.4,30.23,SE,135,0.0,1.8,95,0.02,,,0.02,WUHU216HW,2013-01-31 09:47:00,
2013-01-31 01:52:00,45.7,44.4,30.24,ENE,68,1.1,1.1,95,0.01,,,0.02,WUHU216HW,2013-01-31 09:52:00,
2013-01-31 01:57:00,45.7,44.4,30.24,East,90,0.2,1.1,95,0.01,,,0.02,WUHU216HW,2013-01-31 09:57:00,
2013-01-31 02:02:00,45.7,44.4,30.23,ESE,113,0.9,1.1,95,0.02,,,0.04,WUHU216HW,2013-01-31 10:02:00,
2013-01-31 02:07:00,45.7,44.4,30.23,SE,135,0.0,0.9,95,0.02,,,0.04,WUHU216HW,2013-01-31 10:07:00,
2013-01-31 02:12:00,45.7,44.4,30.24,ENE,68,0.4,0.4,95,0.01,,,0.04,WUHU216HW,2013-01-31 10:12:00,
2013-01-31 02:17:00,45.7,44.4,30.24,SSE,158,0.7,0.7,95,0.01,,,0.04,WUHU216HW,2013-01-31 10:17:00,
2013-01-31 02:22:00,45.7,44.4,30.24,SSE,158,0.7,1.6,95,0.01,,,0.04,WUHU216HW,2013-01-31 10:22:00,
2013-01-31 02:27:00,45.7,44.4,30.24,ESE,113,1.1,1.6,95,0.02,,,0.04,WUHU216HW,2013-01-31 10:27:00,
2013-01-31 02:32:00,45.7,44.4,30.24,ENE,68,0.7,1.1,95,0.02,,,0.05,WUHU216HW,2013-01-31 10:32:00,
2013-01-31 02:37:00,45.7,44.4,30.24,ESE,113,0.9,1.3,95,0.02,,,0.05,WUHU216HW,2013-01-31 10:37:00,
2013-01-31 02:42:00,45.7,44.4,30.24,ENE,68,1.8,1.8,95,0.03,,,0.06,WUHU216HW,2013-01-31 10:42:00,
2013-01-31 02:47:00,45.7,44.4,30.24,East,90,0.7,2.0,95,0.03,,,0.06,WUHU216HW,2013-01-31 10:47:00,
2013-01-31 02:52:00,45.7,44.4,30.24,SE,135,1.3,2.0,95,0.04,,,0.06,WUHU216HW,2013-01-31 10:52:00,
2013-01-31 02:57:00,45.7,44.4,30.24,ENE,68,1.1,1.6,95,0.03,,,0.07,WUHU216HW,2013-01-31 10:57:00,
2013-01-31 03:02:00,45.7,44.4,30.24,East,90,0.4,1.3,95,0.03,,,0.07,WUHU216HW,2013-01-31 11:02:00,
2013-01-31 03:07:00,45.7,44.4,30.24,ENE,68,0.7,1.3,95,0.03,,,0.07,WUHU216HW,2013-01-31 11:07:00,
2013-01-31 03:12:00,45.7,44.4,30.24,East,90,0.4,1.1,95,0.04,,,0.07,WUHU216HW,2013-01-31 11:12:00,
2013-01-31 03:17:00,45.7,44.4,30.24,ESE,113,0.9,1.1,95,0.04,,,0.08,WUHU216HW,2013-01-31 11:17:00,
2013-01-31 03:22:00,45.7,44.4,30.24,East,90,0.4,1.1,95,0.05,,,0.09,WUHU216HW,2013-01-31 11:22:00,
2013-01-31 03:27:00,45.7,44.4,30.24,East,90,0.0,1.1,95,0.04,,,0.09,WUHU216HW,2013-01-31 11:27:00,
2013-01-31 03:32:00,45.5,44.2,30.24,East,90,0.0,0.4,95,0.05,,,0.10,WUHU216HW,2013-01-31 11:32:00,
2013-01-31 03:37:00,45.5,44.2,30.24,South,180,0.0,0.0,95,0.04,,,0.10,WUHU216HW,2013-01-31 11:37:00,
2013-01-31 03:42:00,45.5,44.2,30.24,ESE,113,0.4,1.1,95,0.04,,,0.10,WUHU216HW,2013-01-31 11:42:00,
2013-01-31 03:47:00,45.5,44.2,30.24,SE,135,0.9,1.6,95,0.04,,,0.10,WUHU216HW,2013-01-31 11:47:00,
2013-01-31 03:52:00,45.5,44.2,30.24,SSE,158,0.0,1.6,95,0.03,,,0.10,WUHU216HW,2013-01-31 11:52:00,
2013-01-31 03:57:00,45.4,44.0,30.24,SE,135,0.0,0.4,95,0.04,,,0.11,WUHU216HW,2013-01-31 11:57:00,
2013-01-31 04:02:00,45.5,44.2,30.24,SE,135,0.0,0.4,95,0.05,,,0.12,WUHU216HW,2013-01-31 12:02:00,
2013-01-31 04:07:00,45.5,44.2,30.24,SSE,158,0.0,0.9,95,0.06,,,0.12,WUHU216HW,2013-01-31 12:07:00,
2013-01-31 04:12:00,45.5,44.2,30.24,SE,135,0.0,0.9,95,0.05,,,0.13,WUHU216HW,2013-01-31 12:12:00,
2013-01-31 04:17:00,45.5,44.2,30.24,SE,135,0.4,0.4,95,0.04,,,0.13,WUHU216HW,2013-01-31 12:17:00,
2013-01-31 04:22:00,45.5,44.2,30.24,ESE,113,0.0,0.4,95,0.05,,,0.14,WUHU216HW,2013-01-31 12:22:00,
2013-01-31 04:27:00,45.5,44.2,30.24,East,90,0.4,0.4,95,0.05,,,0.14,WUHU216HW,2013-01-31 12:27:00,
2013-01-31 04:32:00,45.5,44.2,30.24,East,90,0.4,0.7,95,0.05,,,0.15,WUHU216HW,2013-01-31 12:32:00,
2013-01-31 04:37:00,45.4,44.0,30.24,East,90,1.6,1.6,95,0.05,,,0.15,WUHU216HW,2013-01-31 12:37:00,
2013-01-31 04:42:00,45.4,44.0,30.23,ESE,113,0.7,1.6,95,0.05,,,0.15,WUHU216HW,2013-01-31 12:42:00,
2013-01-31 04:47:00,45.5,44.2,30.23,NE,45,0.7,1.1,95,0.05,,,0.15,WUHU216HW,2013-01-31 12:47:00,
2013-01-31 04:52:00,45.4,44.0,30.23,NNE,23,0.0,1.1,95,0.05,,,0.16,WUHU216HW,2013-01-31 12:52:00,
2013-01-31 04:57:00,45.4,44.0,30.23,SE,135,0.0,0.7,95,0.05,,,0.16,WUHU216HW,2013-01-31 12:57:00,
2013-01-31 05:02:00,45.4,44.0,30.23,SE,135,0.0,0.0,95,0.04,,,0.16,WUHU216HW,2013-01-31 13:02:00,
2013-01-31 05:07:00,45.4,44.0,30.23,East,90,0.0,0.0,95,0.03,,,0.16,WUHU216HW,2013-01-31 13:07:00,
2013-01-31 05:13:00,45.4,44.0,30.23,South,180,0.0,0.0,95,0.03,,,0.16,WUHU216HW,2013-01-31 13:13:00,
2013-01-31 05:18:00,45.4,44.0,30.22,South,180,0.0,0.0,95,0.02,,,0.16,WUHU216HW,2013-01-31 13:18:00,
2013-01-31 05:23:00,45.2,43.8,30.22,South,180,0.0,0.0,95,0.02,,,0.16,WUHU216HW,2013-01-31 13:23:00,
2013-01-31 05:28:00,45.2,43.8,30.23,SSW,203,0.0,0.0,95,0.01,,,0.16,WUHU216HW,2013-01-31 13:28:00,
2013-01-31 05:33:00,45.2,43.8,30.22,SSW,203,0.0,0.0,95,0.01,,,0.16,WUHU216HW,2013-01-31 13:33:00,
2013-01-31 05:38:00,45.2,43.8,30.22,East,90,0.9,0.9,95,0.01,,,0.16,WUHU216HW,2013-01-31 13:38:00,
2013-01-31 05:43:00,45.2,43.8,30.22,SE,135,0.0,1.1,95,0.01,,,0.16,WUHU216HW,2013-01-31 13:43:00,
2013-01-31 05:48:00,45.0,43.7,30.22,SE,135,0.4,1.1,95,0.01,,,0.16,WUHU216HW,2013-01-31 13:48:00,
2013-01-31 05:53:00,45.0,43.7,30.22,SE,135,0.0,0.7,95,0.00,,,0.16,WUHU216HW,2013-01-31 13:53:00,
2013-01-31 05:58:00,45.2,43.8,30.23,SE,135,0.0,0.7,95,0.00,,,0.16,WUHU216HW,2013-01-31 13:58:00,
2013-01-31 06:03:00,45.2,43.8,30.22,ENE,68,1.6,1.6,95,0.00,,,0.16,WUHU216HW,2013-01-31 14:03:00,
2013-01-31 06:08:00,45.4,44.0,30.23,ESE,113,0.0,1.6,95,0.00,,,0.16,WUHU216HW,2013-01-31 14:08:00,
2013-01-31 06:13:00,45.4,44.0,30.23,East,90,0.9,1.1,95,0.00,,,0.16,WUHU216HW,2013-01-31 14:13:00,
2013-01-31 06:18:00,45.4,44.3,30.23,ESE,113,0.9,1.1,96,0.00,,,0.16,WUHU216HW,2013-01-31 14:18:00,
2013-01-31 06:23:00,45.2,43.8,30.23,ESE,113,0.4,1.1,95,0.00,,,0.16,WUHU216HW,2013-01-31 14:23:00,
2013-01-31 06:28:00,45.2,44.1,30.23,East,90,0.4,1.1,96,0.00,,,0.16,WUHU216HW,2013-01-31 14:28:00,
2013-01-31 06:33:00,45.2,43.8,30.23,East,90,0.0,0.4,95,0.00,,,0.16,WUHU216HW,2013-01-31 14:33:00,
2013-01-31 06:38:00,45.0,43.7,30.23,East,90,0.0,0.4,95,0.00,,,0.16,WUHU216HW,2013-01-31 14:38:00,
2013-01-31 06:43:00,45.0,43.9,30.22,East,90,0.0,0.9,96,0.00,,,0.16,WUHU216HW,2013-01-31 14:43:00,
2013-01-31 06:48:00,45.0,43.9,30.23,East,90,0.0,0.9,96,0.00,,,0.16,WUHU216HW,2013-01-31 14:48:00,
2013-01-31 06:53:00,44.8,43.7,30.22,East,90,0.0,0.0,96,0.00,,,0.16,WUHU216HW,2013-01-31 14:53:00,
2013-01-31 06:58:00,45.0,43.7,30.22,East,90,0.0,0.0,95,0.00,,,0.16,WUHU216HW,2013-01-31 14:58:00,
2013-01-31 07:03:00,44.8,43.7,30.22,East,90,0.0,0.0,96,0.00,,,0.16,WUHU216HW,2013-01-31 15:03:00,
2013-01-31 07:08:00,44.8,43.7,30.22,East,90,0.0,0.0,96,0.00,,,0.16,WUHU216HW,2013-01-31 15:08:00,
2013-01-31 07:13:00,44.8,43.5,30.22,East,90,0.0,0.0,95,0.00,,,0.16,WUHU216HW,2013-01-31 15:13:00,
2013-01-31 07:18:00,44.8,43.5,30.22,East,90,0.0,0.0,95,0.00,,,0.16,WUHU216HW,2013-01-31 15:18:00,
2013-01-31 07:23:00,44.6,43.6,30.22,East,90,0.0,0.0,96,0.00,,,0.16,WUHU216HW,2013-01-31 15:23:00,
2013-01-31 07:28:00,44.6,43.6,30.22,East,90,0.0,0.0,96,0.00,,,0.16,WUHU216HW,2013-01-31 15:28:00,
2013-01-31 07:33:00,44.6,43.3,30.22,SE,135,0.0,0.0,95,0.00,,,0.16,WUHU216HW,2013-01-31 15:33:00,
2013-01-31 07:38:00,44.6,43.3,30.23,SE,135,0.0,0.0,95,0.00,,,0.16,WUHU216HW,2013-01-31 15:38:00,
2013-01-31 07:43:00,44.5,43.4,30.23,SE,135,0.0,0.0,96,0.00,,,0.16,WUHU216HW,2013-01-31 15:43:00,
2013-01-31 07:48:00,44.5,43.4,30.23,SE,135,0.0,0.0,96,0.00,,,0.16,WUHU216HW,2013-01-31 15:48:00,
2013-01-31 07:53:00,44.5,43.4,30.22,SE,135,0.0,0.0,96,0.00,,,0.16,WUHU216HW,2013-01-31 15:53:00,
2013-01-31 07:58:00,44.5,43.4,30.23,SE,135,0.0,0.0,96,0.00,,,0.16,WUHU216HW,2013-01-31 15:58:00,
2013-01-31 08:03:00,44.5,43.4,30.23,SE,135,0.0,0.0,96,0.00,,,0.16,WUHU216HW,2013-01-31 16:03:00,
2013-01-31 08:08:00,44.6,43.6,30.22,ESE,113,0.0,0.0,96,0.00,,,0.16,WUHU216HW,2013-01-31 16:08:00,
2013-01-31 08:13:00,44.5,43.1,30.22,ESE,113,0.0,0.0,95,0.00,,,0.16,WUHU216HW,2013-01-31 16:13:00,
2013-01-31 08:18:00,44.1,43.0,30.22,SSW,203,0.0,0.4,96,0.00,,,0.16,WUHU216HW,2013-01-31 16:18:00,
2013-01-31 08:23:00,43.9,42.8,30.22,SSE,158,0.2,0.4,96,0.00,,,0.16,WUHU216HW,2013-01-31 16:23:00,
2013-01-31 08:28:00,44.1,43.0,30.22,East,90,0.4,0.4,96,0.00,,,0.16,WUHU216HW,2013-01-31 16:28:00,
2013-01-31 08:33:00,44.3,43.2,30.22,East,90,0.0,0.4,96,0.00,,,0.16,WUHU216HW,2013-01-31 16:33:00,
2013-01-31 08:38:00,44.5,43.4,30.22,SSW,203,0.0,0.2,96,0.00,,,0.16,WUHU216HW,2013-01-31 16:38:00,
2013-01-31 08:43:00,44.6,43.6,30.22,SE,135,0.0,0.0,96,0.00,,,0.16,WUHU216HW,2013-01-31 16:43:00,
2013-01-31 08:48:00,45.0,43.7,30.22,SSW,203,0.0,0.9,95,0.00,,,0.16,WUHU216HW,2013-01-31 16:48:00,
2013-01-31 08:53:00,45.2,43.8,30.22,SE,135,0.2,0.9,95,0.00,,,0.16,WUHU216HW,2013-01-31 16:53:00,
2013-01-31 08:58:00,45.4,44.0,30.22,South,180,0.0,0.9,95,0.00,,,0.16,WUHU216HW,2013-01-31 16:58:00,
2013-01-31 09:03:00,45.9,44.6,30.22,ENE,68,0.2,0.9,95,0.00,,,0.16,WUHU216HW,2013-01-31 17:03:00,
2013-01-31 09:08:00,46.1,44.7,30.22,SSW,203,0.0,0.9,95,0.00,,,0.16,WUHU216HW,2013-01-31 17:08:00,
2013-01-31 09:13:00,46.3,44.9,30.22,South,180,0.0,0.9,95,0.00,,,0.16,WUHU216HW,2013-01-31 17:13:00,
2013-01-31 09:18:00,46.6,45.3,30.22,SW,225,0.4,1.8,95,0.00,,,0.16,WUHU216HW,2013-01-31 17:18:00,
2013-01-31 09:23:00,46.8,45.5,30.22,SSW,203,0.9,1.8,95,0.00,,,0.16,WUHU216HW,2013-01-31 17:23:00,
2013-01-31 09:28:00,47.2,46.1,30.22,South,180,0.0,1.6,96,0.00,,,0.16,WUHU216HW,2013-01-31 17:28:00,
2013-01-31 09:33:00,47.2,46.1,30.22,NE,45,0.2,1.6,96,0.00,,,0.16,WUHU216HW,2013-01-31 17:33:00,
2013-01-31 09:38:00,47.7,46.6,30.21,South,180,0.7,1.1,96,0.00,,,0.16,WUHU216HW,2013-01-31 17:38:00,
2013-01-31 09:43:00,48.1,47.0,30.22,SE,135,0.0,1.8,96,0.00,,,0.16,WUHU216HW,2013-01-31 17:43:00,
2013-01-31 09:48:00,48.6,47.5,30.22,SSE,158,0.0,1.8,96,0.00,,,0.16,WUHU216HW,2013-01-31 17:48:00,
2013-01-31 09:53:00,49.1,48.1,30.22,SSE,158,1.1,3.4,96,0.00,,,0.16,WUHU216HW,2013-01-31 17:53:00,
2013-01-31 09:58:00,48.8,47.7,30.22,SSW,203,1.1,3.4,96,0.00,,,0.16,WUHU216HW,2013-01-31 17:58:00,
2013-01-31 10:03:00,48.8,47.7,30.22,SSE,158,0.9,1.6,96,0.00,,,0.16,WUHU216HW,2013-01-31 18:03:00,
2013-01-31 10:08:00,48.6,47.5,30.22,SW,225,0.9,1.1,96,0.00,,,0.16,WUHU216HW,2013-01-31 18:08:00,
2013-01-31 10:13:00,48.6,47.5,30.22,SW,225,0.0,1.8,96,0.00,,,0.16,WUHU216HW,2013-01-31 18:13:00,
2013-01-31 10:18:00,48.2,46.9,30.22,SE,135,1.8,2.2,95,0.00,,,0.16,WUHU216HW,2013-01-31 18:18:00,
2013-01-31 10:23:00,48.1,46.7,30.22,East,90,1.6,2.2,95,0.00,,,0.16,WUHU216HW,2013-01-31 18:23:00,
2013-01-31 10:28:00,47.9,46.5,30.22,East,90,0.7,1.8,95,0.00,,,0.16,WUHU216HW,2013-01-31 18:28:00,
2013-01-31 10:33:00,47.9,46.5,30.22,SSW,203,0.9,1.8,95,0.00,,,0.16,WUHU216HW,2013-01-31 18:33:00,
2013-01-31 10:38:00,47.7,46.4,30.22,ESE,113,0.0,1.8,95,0.00,,,0.16,WUHU216HW,2013-01-31 18:38:00,
2013-01-31 10:43:00,47.5,46.2,30.22,ESE,113,1.6,2.5,95,0.00,,,0.16,WUHU216HW,2013-01-31 18:43:00,
2013-01-31 10:48:00,47.2,45.8,30.22,ENE,68,0.7,2.5,95,0.01,,,0.17,WUHU216HW,2013-01-31 18:48:00,
2013-01-31 10:53:00,47.2,45.8,30.22,ESE,113,1.1,1.8,95,0.01,,,0.17,WUHU216HW,2013-01-31 18:53:00,
2013-01-31 10:58:00,47.0,45.4,30.22,East,90,0.9,1.6,94,0.02,,,0.18,WUHU216HW,2013-01-31 18:58:00,
2013-01-31 11:03:00,46.8,45.2,30.22,ENE,68,1.8,1.8,94,0.03,,,0.18,WUHU216HW,2013-01-31 19:03:00,
2013-01-31 11:08:00,46.8,45.2,30.22,East,90,0.9,1.8,94,0.03,,,0.19,WUHU216HW,2013-01-31 19:08:00,
2013-01-31 11:13:00,46.8,45.2,30.22,East,90,1.1,1.8,94,0.03,,,0.19,WUHU216HW,2013-01-31 19:13:00,
2013-01-31 11:18:00,46.6,45.0,30.22,East,90,1.3,1.3,94,0.03,,,0.19,WUHU216HW,2013-01-31 19:18:00,
2013-01-31 11:23:00,46.6,45.3,30.22,East,90,0.7,1.3,95,0.03,,,0.19,WUHU216HW,2013-01-31 19:23:00,
2013-01-31 11:28:00,46.6,45.3,30.22,East,90,0.4,1.3,95,0.04,,,0.19,WUHU216HW,2013-01-31 19:28:00,
2013-01-31 11:33:00,46.6,45.3,30.22,East,90,1.1,1.3,95,0.04,,,0.20,WUHU216HW,2013-01-31 19:33:00,
2013-01-31 11:38:00,46.6,45.3,30.21,ESE,113,0.7,1.3,95,0.04,,,0.20,WUHU216HW,2013-01-31 19:38:00,
2013-01-31 11:43:00,46.6,45.3,30.21,ESE,113,1.1,1.8,95,0.04,,,0.21,WUHU216HW,2013-01-31 19:43:00,
2013-01-31 11:48:00,46.6,45.3,30.21,East,90,0.9,3.4,95,0.04,,,0.21,WUHU216HW,2013-01-31 19:48:00,
2013-01-31 11:53:00,46.8,45.5,30.21,ENE,68,1.3,3.4,95,0.03,,,0.21,WUHU216HW,2013-01-31 19:53:00,
2013-01-31 11:58:00,46.6,45.3,30.21,ESE,113,0.7,1.8,95,0.03,,,0.21,WUHU216HW,2013-01-31 19:58:00,
2013-01-31 12:03:00,46.6,45.0,30.21,ENE,68,2.2,2.5,94,0.02,,,0.21,WUHU216HW,2013-01-31 20:03:00,
2013-01-31 12:08:00,46.6,45.0,30.21,ENE,68,1.1,2.5,94,0.02,,,0.21,WUHU216HW,2013-01-31 20:08:00,
2013-01-31 12:13:00,46.8,45.2,30.20,East,90,0.0,1.8,94,0.02,,,0.21,WUHU216HW,2013-01-31 20:13:00,
2013-01-31 12:18:00,46.8,45.2,30.20,SSE,158,0.9,1.8,94,0.02,,,0.21,WUHU216HW,2013-01-31 20:18:00,
2013-01-31 12:23:00,46.8,45.2,30.20,South,180,0.0,1.8,94,0.02,,,0.21,WUHU216HW,2013-01-31 20:23:00,
2013-01-31 12:28:00,47.0,45.4,30.20,NE,45,0.4,1.8,94,0.01,,,0.21,WUHU216HW,2013-01-31 20:28:00,
2013-01-31 12:33:00,47.2,45.8,30.19,East,90,0.0,0.4,95,0.01,,,0.21,WUHU216HW,2013-01-31 20:33:00,
2013-01-31 12:38:00,47.0,45.6,30.19,NNE,23,0.4,1.1,95,0.00,,,0.21,WUHU216HW,2013-01-31 20:38:00,
2013-01-31 12:43:00,47.2,45.8,30.19,ESE,113,0.4,1.1,95,0.00,,,0.21,WUHU216HW,2013-01-31 20:43:00,
2013-01-31 12:48:00,47.2,45.8,30.19,ENE,68,0.0,1.1,95,0.00,,,0.21,WUHU216HW,2013-01-31 20:48:00,
2013-01-31 12:53:00,47.3,46.0,30.19,WSW,248,0.2,1.1,95,0.00,,,0.21,WUHU216HW,2013-01-31 20:53:00,
2013-01-31 12:58:00,47.5,46.2,30.19,ESE,113,0.2,0.7,95,0.00,,,0.21,WUHU216HW,2013-01-31 20:58:00,
2013-01-31 13:03:00,47.9,46.5,30.18,SSW,203,1.1,1.3,95,0.00,,,0.21,WUHU216HW,2013-01-31 21:03:00,
2013-01-31 13:08:00,48.2,46.9,30.18,South,180,1.6,2.0,95,0.00,,,0.21,WUHU216HW,2013-01-31 21:08:00,
2013-01-31 13:13:00,48.4,47.1,30.18,SSW,203,0.4,2.0,95,0.00,,,0.21,WUHU216HW,2013-01-31 21:13:00,
2013-01-31 13:18:00,48.6,47.3,30.18,SSE,158,0.7,0.9,95,0.00,,,0.21,WUHU216HW,2013-01-31 21:18:00,
2013-01-31 13:23:00,48.4,47.1,30.17,ESE,113,0.0,1.8,95,0.00,,,0.21,WUHU216HW,2013-01-31 21:23:00,
2013-01-31 13:28:00,48.2,46.9,30.17,SE,135,0.0,1.8,95,0.00,,,0.21,WUHU216HW,2013-01-31 21:28:00,
2013-01-31 13:33:00,48.6,47.3,30.17,West,270,0.0,0.0,95,0.00,,,0.21,WUHU216HW,2013-01-31 21:33:00,
2013-01-31 13:38:00,48.2,46.9,30.17,SSE,158,0.4,0.9,95,0.00,,,0.21,WUHU216HW,2013-01-31 21:38:00,
2013-01-31 13:43:00,48.2,46.9,30.17,SSW,203,0.7,0.9,95,0.00,,,0.21,WUHU216HW,2013-01-31 21:43:00,
2013-01-31 13:48:00,48.6,47.3,30.17,South,180,0.7,1.8,95,0.00,,,0.21,WUHU216HW,2013-01-31 21:48:00,
2013-01-31 13:53:00,48.6,47.3,30.17,West,270,1.8,1.8,95,0.00,,,0.21,WUHU216HW,2013-01-31 21:53:00,
2013-01-31 13:58:00,48.4,47.1,30.17,SSW,203,1.6,1.8,95,0.00,,,0.21,WUHU216HW,2013-01-31 21:58:00,
2013-01-31 14:03:00,48.6,47.3,30.17,SSW,203,1.6,1.8,95,0.00,,,0.21,WUHU216HW,2013-01-31 22:03:00,
2013-01-31 14:08:00,48.6,47.3,30.16,South,180,0.9,1.6,95,0.00,,,0.21,WUHU216HW,2013-01-31 22:08:00,
2013-01-31 14:13:00,48.6,47.3,30.16,SSE,158,1.8,1.8,95,0.00,,,0.21,WUHU216HW,2013-01-31 22:13:00,
2013-01-31 14:18:00,48.6,47.3,30.17,South,180,0.4,1.8,95,0.00,,,0.21,WUHU216HW,2013-01-31 22:18:00,
2013-01-31 14:23:00,49.0,47.6,30.16,South,180,1.1,1.8,95,0.00,,,0.21,WUHU216HW,2013-01-31 22:23:00,
2013-01-31 14:28:00,48.8,47.2,30.16,SSE,158,1.6,1.8,94,0.00,,,0.21,WUHU216HW,2013-01-31 22:28:00,
2013-01-31 14:33:00,48.6,47.0,30.16,SE,135,0.9,1.8,94,0.00,,,0.21,WUHU216HW,2013-01-31 22:33:00,
2013-01-31 14:38:00,48.6,47.0,30.16,SE,135,1.8,1.8,94,0.00,,,0.21,WUHU216HW,2013-01-31 22:38:00,
2013-01-31 14:43:00,48.6,47.0,30.16,East,90,1.1,3.1,94,0.00,,,0.21,WUHU216HW,2013-01-31 22:43:00,
2013-01-31 14:48:00,48.6,47.0,30.16,East,90,1.8,3.1,94,0.00,,,0.21,WUHU216HW,2013-01-31 22:48:00,
2013-01-31 14:53:00,48.6,47.0,30.16,SE,135,0.7,2.5,94,0.00,,,0.21,WUHU216HW,2013-01-31 22:53:00,
2013-01-31 14:58:00,48.2,46.6,30.16,SSE,158,2.0,2.2,94,0.00,,,0.21,WUHU216HW,2013-01-31 22:58:00,
2013-01-31 15:03:00,48.1,46.4,30.16,South,180,3.8,3.8,94,0.00,,,0.21,WUHU216HW,2013-01-31 23:03:00,
2013-01-31 15:08:00,48.1,46.4,30.15,SSW,203,2.0,3.8,94,0.00,,,0.21,WUHU216HW,2013-01-31 23:08:00,
2013-01-31 15:13:00,47.9,46.3,30.16,East,90,1.1,2.7,94,0.00,,,0.21,WUHU216HW,2013-01-31 23:13:00,
2013-01-31 15:18:00,47.9,46.3,30.16,East,90,1.3,2.2,94,0.00,,,0.21,WUHU216HW,2013-01-31 23:18:00,
2013-01-31 15:23:00,47.9,46.3,30.15,SSW,203,2.5,2.5,94,0.00,,,0.21,WUHU216HW,2013-01-31 23:23:00,
2013-01-31 15:28:00,47.9,46.3,30.15,ESE,113,1.1,3.6,94,0.00,,,0.21,WUHU216HW,2013-01-31 23:28:00,
2013-01-31 15:33:00,47.7,46.1,30.15,SW,225,2.5,3.6,94,0.00,,,0.21,WUHU216HW,2013-01-31 23:33:00,
2013-01-31 15:38:00,47.7,46.1,30.15,SE,135,1.8,2.9,94,0.00,,,0.21,WUHU216HW,2013-01-31 23:38:00,
2013-01-31 15:43:00,47.7,46.1,30.15,East,90,1.1,2.5,94,0.00,,,0.21,WUHU216HW,2013-01-31 23:43:00,
2013-01-31 15:48:00,47.5,45.9,30.15,NNE,23,0.4,2.5,94,0.00,,,0.21,WUHU216HW,2013-01-31 23:48:00,
2013-01-31 15:53:00,47.5,45.9,30.15,East,90,0.9,2.5,94,0.00,,,0.21,WUHU216HW,2013-01-31 23:53:00,
2013-01-31 15:58:00,47.3,45.7,30.15,ESE,113,0.7,1.8,94,0.00,,,0.21,WUHU216HW,2013-01-31 23:58:00,
2013-01-31 16:03:00,47.2,45.5,30.15,ENE,68,1.6,1.8,94,0.00,,,0.21,WUHU216HW,2013-02-01 00:03:00,
2013-01-31 16:08:00,47.2,45.5,30.15,ENE,68,1.1,1.6,94,0.00,,,0.21,WUHU216HW,2013-02-01 00:08:00,
2013-01-31 16:13:00,47.2,45.5,30.15,East,90,1.1,1.3,94,0.00,,,0.21,WUHU216HW,2013-02-01 00:13:00,
2013-01-31 16:18:00,47.2,45.5,30.15,NE,45,1.6,1.6,94,0.00,,,0.21,WUHU216HW,2013-02-01 00:18:00,
2013-01-31 16:23:00,47.2,45.5,30.15,East,90,0.9,1.6,94,0.00,,,0.21,WUHU216HW,2013-02-01 00:23:00,
2013-01-31 16:28:00,47.0,45.4,30.15,East,90,0.2,1.3,94,0.00,,,0.21,WUHU216HW,2013-02-01 00:28:00,
2013-01-31 16:33:00,46.8,45.2,30.15,East,90,0.0,1.3,94,0.00,,,0.21,WUHU216HW,2013-02-01 00:33:00,
2013-01-31 16:38:00,46.8,45.2,30.15,SSW,203,0.0,0.9,94,0.00,,,0.21,WUHU216HW,2013-02-01 00:38:00,
2013-01-31 16:43:00,46.6,45.3,30.15,East,90,0.9,0.9,95,0.00,,,0.21,WUHU216HW,2013-02-01 00:43:00,
2013-01-31 16:48:00,46.6,45.3,30.15,NE,45,1.1,1.1,95,0.00,,,0.21,WUHU216HW,2013-02-01 00:48:00,
2013-01-31 16:53:00,46.4,44.8,30.15,ESE,113,1.6,1.6,94,0.00,,,0.21,WUHU216HW,2013-02-01 00:53:00,
2013-01-31 16:58:00,46.4,44.8,30.15,ENE,68,0.2,1.6,94,0.00,,,0.21,WUHU216HW,2013-02-01 00:58:00,
2013-01-31 17:03:00,46.4,44.8,30.15,East,90,1.1,1.6,94,0.00,,,0.21,WUHU216HW,2013-02-01 01:03:00,
2013-01-31 17:08:00,46.4,44.8,30.15,East,90,1.1,1.1,94,0.00,,,0.21,WUHU216HW,2013-02-01 01:08:00,
2013-01-31 17:13:00,46.4,44.8,30.15,SE,135,0.0,1.1,94,0.00,,,0.21,WUHU216HW,2013-02-01 01:13:00,
2013-01-31 17:18:00,46.4,44.8,30.15,East,90,0.7,0.9,94,0.00,,,0.21,WUHU216HW,2013-02-01 01:18:00,
2013-01-31 17:23:00,46.4,44.8,30.16,East,90,1.6,1.6,94,0.00,,,0.21,WUHU216HW,2013-02-01 01:23:00,
2013-01-31 17:28:00,46.4,44.8,30.15,East,90,1.3,1.8,94,0.00,,,0.21,WUHU216HW,2013-02-01 01:28:00,
2013-01-31 17:33:00,46.4,44.8,30.16,East,90,1.8,1.8,94,0.00,,,0.21,WUHU216HW,2013-02-01 01:33:00,
2013-01-31 17:38:00,46.4,44.8,30.15,ENE,68,1.1,1.8,94,0.00,,,0.21,WUHU216HW,2013-02-01 01:38:00,
2013-01-31 17:43:00,46.4,44.8,30.15,ENE,68,1.1,1.3,94,0.00,,,0.21,WUHU216HW,2013-02-01 01:43:00,
2013-01-31 17:48:00,46.3,44.6,30.15,North,0,0.7,1.1,94,0.00,,,0.21,WUHU216HW,2013-02-01 01:48:00,
2013-01-31 17:53:00,46.3,44.6,30.15,NNE,23,0.0,0.9,94,0.00,,,0.21,WUHU216HW,2013-02-01 01:53:00,
2013-01-31 17:58:00,46.3,44.6,30.16,East,90,0.7,0.9,94,0.00,,,0.21,WUHU216HW,2013-02-01 01:58:00,
2013-01-31 18:03:00,46.4,44.8,30.16,ESE,113,0.4,1.1,94,0.00,,,0.21,WUHU216HW,2013-02-01 02:03:00,
2013-01-31 18:08:00,46.3,44.6,30.16,ESE,113,0.0,1.1,94,0.00,,,0.21,WUHU216HW,2013-02-01 02:08:00,
2013-01-31 18:13:00,46.3,44.6,30.16,ESE,113,0.0,0.4,94,0.00,,,0.21,WUHU216HW,2013-02-01 02:13:00,
2013-01-31 18:18:00,46.1,44.5,30.16,East,90,0.0,0.0,94,0.00,,,0.21,WUHU216HW,2013-02-01 02:18:00,
2013-01-31 18:23:00,46.1,44.5,30.16,East,90,0.0,0.0,94,0.00,,,0.21,WUHU216HW,2013-02-01 02:23:00,
2013-01-31 18:28:00,46.1,44.5,30.16,ESE,113,0.7,0.7,94,0.00,,,0.21,WUHU216HW,2013-02-01 02:28:00,
2013-01-31 18:33:00,46.1,44.5,30.16,WNW,293,1.1,1.1,94,0.00,,,0.21,WUHU216HW,2013-02-01 02:33:00,
2013-01-31 18:38:00,46.1,44.5,30.16,East,90,0.7,1.1,94,0.00,,,0.21,WUHU216HW,2013-02-01 02:38:00,
2013-01-31 18:43:00,46.1,44.5,30.16,ESE,113,0.4,1.1,94,0.00,,,0.21,WUHU216HW,2013-02-01 02:43:00,
2013-01-31 18:48:00,46.1,44.5,30.16,East,90,1.1,1.3,94,0.00,,,0.21,WUHU216HW,2013-02-01 02:48:00,
2013-01-31 18:53:00,45.9,44.3,30.16,ESE,113,0.7,1.3,94,0.00,,,0.21,WUHU216HW,2013-02-01 02:53:00,
2013-01-31 18:58:00,45.9,44.3,30.16,SSE,158,0.4,1.6,94,0.00,,,0.21,WUHU216HW,2013-02-01 02:58:00,
2013-01-31 19:03:00,45.9,44.3,30.16,ESE,113,0.0,1.6,94,0.00,,,0.21,WUHU216HW,2013-02-01 03:03:00,
2013-01-31 19:08:00,45.9,44.3,30.16,SW,225,0.0,0.0,94,0.00,,,0.21,WUHU216HW,2013-02-01 03:08:00,
2013-01-31 19:13:00,45.7,44.1,30.16,SW,225,0.0,0.0,94,0.00,,,0.21,WUHU216HW,2013-02-01 03:13:00,
2013-01-31 19:18:00,45.7,44.1,30.16,SW,225,0.0,0.0,94,0.00,,,0.21,WUHU216HW,2013-02-01 03:18:00,
2013-01-31 19:23:00,45.7,44.1,30.16,NNW,338,0.0,0.0,94,0.00,,,0.21,WUHU216HW,2013-02-01 03:23:00,
2013-01-31 19:28:00,45.7,44.1,30.16,NNW,338,0.0,0.0,94,0.00,,,0.21,WUHU216HW,2013-02-01 03:28:00,
2013-01-31 19:33:00,45.7,44.1,30.16,NNW,338,0.0,0.0,94,0.00,,,0.21,WUHU216HW,2013-02-01 03:33:00,
2013-01-31 19:38:00,45.7,44.1,30.16,NNW,338,0.0,0.0,94,0.01,,,0.21,WUHU216HW,2013-02-01 03:38:00,
2013-01-31 19:43:00,45.7,44.1,30.16,NNW,338,0.0,0.0,94,0.01,,,0.22,WUHU216HW,2013-02-01 03:43:00,
2013-01-31 19:48:00,45.7,44.1,30.16,ESE,113,0.0,0.0,94,0.01,,,0.22,WUHU216HW,2013-02-01 03:48:00,
2013-01-31 19:53:00,45.7,44.1,30.16,East,90,1.1,1.1,94,0.01,,,0.22,WUHU216HW,2013-02-01 03:53:00,
2013-01-31 19:58:00,45.7,44.1,30.16,East,90,1.1,1.3,94,0.01,,,0.22,WUHU216HW,2013-02-01 03:58:00,
2013-01-31 20:03:00,45.7,44.1,30.16,East,90,0.4,1.3,94,0.01,,,0.22,WUHU216HW,2013-02-01 04:03:00,
2013-01-31 20:08:00,45.7,44.1,30.16,NNE,23,0.0,1.1,94,0.01,,,0.22,WUHU216HW,2013-02-01 04:08:00,
2013-01-31 20:13:00,45.7,44.1,30.16,North,0,0.0,0.4,94,0.02,,,0.23,WUHU216HW,2013-02-01 04:13:00,
2013-01-31 20:18:00,45.7,44.1,30.16,ENE,68,0.0,0.0,94,0.02,,,0.23,WUHU216HW,2013-02-01 04:18:00,
2013-01-31 20:23:00,45.7,44.1,30.16,ENE,68,0.0,0.0,94,0.02,,,0.23,WUHU216HW,2013-02-01 04:23:00,
2013-01-31 20:28:00,45.7,44.1,30.16,ENE,68,0.0,0.0,94,0.03,,,0.23,WUHU216HW,2013-02-01 04:28:00,
2013-01-31 20:33:00,45.7,44.1,30.16,ENE,68,0.0,0.0,94,0.03,,,0.24,WUHU216HW,2013-02-01 04:33:00,
2013-01-31 20:38:00,45.5,43.9,30.16,ENE,68,0.0,0.0,94,0.02,,,0.24,WUHU216HW,2013-02-01 04:38:00,
2013-01-31 20:43:00,45.7,44.1,30.16,SE,135,0.0,0.0,94,0.02,,,0.24,WUHU216HW,2013-02-01 04:43:00,
2013-01-31 20:48:00,45.7,44.1,30.16,SE,135,0.0,0.0,94,0.02,,,0.24,WUHU216HW,2013-02-01 04:48:00,
2013-01-31 20:53:00,45.5,43.9,30.16,SE,135,0.0,0.0,94,0.02,,,0.24,WUHU216HW,2013-02-01 04:53:00,
2013-01-31 20:58:00,45.5,43.9,30.16,SE,135,0.0,0.0,94,0.02,,,0.24,WUHU216HW,2013-02-01 04:58:00,
2013-01-31 21:01:00,45.5,43.9,30.16,SE,135,0.0,0.0,94,0.02,,,0.24,WUHU216HW,2013-02-01 05:01:00,
2013-01-31 21:03:00,45.5,43.9,30.16,SE,135,0.0,0.0,94,0.02,,,0.24,WUHU216HW,2013-02-01 05:03:00,
2013-01-31 21:08:00,45.5,43.9,30.16,SE,135,0.0,0.0,94,0.01,,,0.24,WUHU216HW,2013-02-01 05:08:00,
2013-01-31 21:13:00,45.5,44.2,30.16,ESE,113,0.4,0.4,95,0.02,,,0.25,WUHU216HW,2013-02-01 05:13:00,
2013-01-31 21:18:00,45.5,44.2,30.16,ESE,113,0.0,0.4,95,0.02,,,0.25,WUHU216HW,2013-02-01 05:18:00,
2013-01-31 21:23:00,45.5,44.2,30.16,ESE,113,0.0,0.4,95,0.02,,,0.25,WUHU216HW,2013-02-01 05:23:00,
2013-01-31 21:28:00,45.5,43.9,30.16,ESE,113,0.0,0.0,94,0.01,,,0.25,WUHU216HW,2013-02-01 05:28:00,
2013-01-31 21:33:00,45.5,43.9,30.16,ESE,113,0.0,0.0,94,0.01,,,0.25,WUHU216HW,2013-02-01 05:33:00,
2013-01-31 21:38:00,45.5,44.2,30.16,SE,135,0.0,0.0,95,0.01,,,0.25,WUHU216HW,2013-02-01 05:38:00,
2013-01-31 21:43:00,45.5,43.9,30.16,East,90,0.0,0.0,94,0.01,,,0.25,WUHU216HW,2013-02-01 05:43:00,
2013-01-31 21:48:00,45.5,44.2,30.16,ESE,113,0.2,0.9,95,0.01,,,0.25,WUHU216HW,2013-02-01 05:48:00,
2013-01-31 21:53:00,45.5,44.2,30.16,ESE,113,0.0,1.8,95,0.01,,,0.25,WUHU216HW,2013-02-01 05:53:00,
2013-01-31 21:58:00,45.5,44.2,30.16,ESE,113,0.0,1.8,95,0.01,,,0.25,WUHU216HW,2013-02-01 05:58:00,
2013-01-31 22:03:00,45.4,44.0,30.16,South,180,0.0,0.4,95,0.01,,,0.25,WUHU216HW,2013-02-01 06:03:00,
2013-01-31 22:08:00,45.4,43.7,30.16,South,180,0.0,0.4,94,0.00,,,0.25,WUHU216HW,2013-02-01 06:08:00,
2013-01-31 22:13:00,45.4,44.0,30.16,South,180,0.0,0.0,95,0.00,,,0.25,WUHU216HW,2013-02-01 06:13:00,
2013-01-31 22:18:00,45.4,44.0,30.16,ESE,113,0.0,0.4,95,0.01,,,0.25,WUHU216HW,2013-02-01 06:18:00,
2013-01-31 22:23:00,45.5,44.2,30.16,SE,135,0.0,0.9,95,0.01,,,0.26,WUHU216HW,2013-02-01 06:23:00,
2013-01-31 22:28:00,45.5,44.2,30.16,SE,135,0.0,0.9,95,0.01,,,0.26,WUHU216HW,2013-02-01 06:28:00,
2013-01-31 22:33:00,45.5,44.2,30.16,SE,135,1.1,1.8,95,0.01,,,0.26,WUHU216HW,2013-02-01 06:33:00,
2013-01-31 22:38:00,45.7,44.4,30.16,ESE,113,0.0,1.8,95,0.01,,,0.26,WUHU216HW,2013-02-01 06:38:00,
2013-01-31 22:43:00,45.7,44.4,30.16,SSW,203,0.2,0.9,95,0.01,,,0.26,WUHU216HW,2013-02-01 06:43:00,
2013-01-31 22:48:00,45.5,44.2,30.17,SE,135,0.7,0.9,95,0.01,,,0.26,WUHU216HW,2013-02-01 06:48:00,
2013-01-31 22:53:00,45.5,44.2,30.17,SSW,203,0.0,0.9,95,0.01,,,0.26,WUHU216HW,2013-02-01 06:53:00,
2013-01-31 22:58:00,45.7,44.4,30.17,SSW,203,0.0,0.9,95,0.01,,,0.26,WUHU216HW,2013-02-01 06:58:00,
2013-01-31 23:03:00,45.7,44.4,30.17,SSE,158,0.0,0.4,95,0.01,,,0.26,WUHU216HW,2013-02-01 07:03:00,
2013-01-31 23:08:00,45.7,44.4,30.17,South,180,1.6,2.0,95,0.01,,,0.26,WUHU216HW,2013-02-01 07:08:00,
2013-01-31 23:13:00,45.7,44.4,30.17,SW,225,0.0,2.0,95,0.01,,,0.26,WUHU216HW,2013-02-01 07:13:00,
2013-01-31 23:18:00,45.7,44.4,30.17,SE,135,0.4,1.3,95,0.00,,,0.26,WUHU216HW,2013-02-01 07:18:00,
2013-01-31 23:23:00,45.7,44.4,30.17,SE,135,0.9,0.9,95,0.00,,,0.26,WUHU216HW,2013-02-01 07:23:00,
2013-01-31 23:28:00,45.5,44.2,30.17,South,180,0.4,0.9,95,0.00,,,0.26,WUHU216HW,2013-02-01 07:28:00,
2013-01-31 23:33:00,45.5,44.2,30.17,SE,135,0.4,0.9,95,0.00,,,0.26,WUHU216HW,2013-02-01 07:33:00,
2013-01-31 23:38:00,45.7,44.4,30.17,East,90,0.9,2.0,95,0.01,,,0.26,WUHU216HW,2013-02-01 07:38:00,
2013-01-31 23:43:00,45.5,44.2,30.17,South,180,0.0,2.0,95,0.01,,,0.27,WUHU216HW,2013-02-01 07:43:00,
2013-01-31 23:48:00,45.7,44.4,30.17,SSW,203,1.1,1.1,95,0.01,,,0.27,WUHU216HW,2013-02-01 07:48:00,
2013-01-31 23:53:00,45.5,44.2,30.17,South,180,1.1,1.6,95,0.01,,,0.27,WUHU216HW,2013-02-01 07:53:00,
2013-01-31 23:58:00,45.5,44.2,30.17,South,180,0.2,1.6,95,0.01,,,0.27,WUHU216HW,2013-02-01 07:58:00,